[[{"header":{"parameterUnit":"m.s-1","parameterCategory":1,"la1":30.2991,"la2":30.254,"lo1":-89.0895,"lo2":-89.0444,"dy":0.0017,"dx":0.0017,"nx":28,"ny":28,"refTime":"2025-01-15T03:00:00:Z","depth":0,"parameterNumber":2,"parameterNumberName":"U-component_of_WINDS"},"data":[0,0,0,0,0,0,0,0,0,0,0,0,0,0,0,0,0,0,0,0,0,0,0,0,0,0,0,0,0,0,0,0,0,0,0,0,0,0,0,0,0,0,0,0,0,0,0,0,0,0,0,0,0,0,0,0,0,0,1.4944,1.4945,0,1.5001,1.5002,1.5003,1.5023,1.5023,1.5023,1.5023,1.5082,1.5083,1.5085,0,0,0,0,0,0,0,0,0,0,0,0,0,1.4855,1.4856,1.4944,1.4945,1.4946,1.5001,1.5002,1.5003,1.5023,1.5023,1.5023,1.5023,1.5081,1.5083,1.5085,0,0,0,0,0,0,0,0,0,0,0,0,0,1.4901,1.4857,1.4944,1.4963,1.4965,1.5001,1.5002,1.5003,1.5023,1.5023,1.5023,1.5022,1.508,1.5083,1.5086,1.5108,0,0,1.5094,1.5095,0,0,0,0,0,0,0,0,1.4898,1.4904,1.4959,1.4961,1.4964,1.5005,1.4992,1.5038,1.5023,1.5001,1.5023,1.5022,1.5056,1.5061,1.5072,1.5111,1.5113,1.5094,1.5095,1.5097,1.5097,0,0,0,0,0,0,0,1.4895,1.4902,1.4967,1.496,1.4963,1.4969,1.4975,1.5001,1.503,1.5003,1.5005,1.5011,1.5058,1.507,1.5074,1.5114,1.5094,1.5096,1.5098,1.5099,1.5175,1.5175,0,0,0,0,0,0,1.4888,1.4899,1.4965,1.4969,1.493,1.497,1.4977,1.4992,1.503,1.5035,1.5011,1.5012,1.5065,1.5071,1.5076,1.5105,1.5097,1.5099,1.5101,1.5174,1.5175,1.5175,0,0,0,0,0,0,1.4886,1.4894,1.4963,1.4934,1.4943,1.4972,1.4989,1.4993,1.5005,1.5036,1.5041,1.5018,1.5065,1.5072,1.51,1.5108,1.51,1.5103,1.5174,1.5174,1.5175,1.5163,0,0,0,0,0,0,1.4884,1.4893,1.4902,1.4934,1.4945,1.4985,1.4989,1.4995,1.501,1.5011,1.5044,1.5049,1.5066,1.5096,1.5103,1.5111,1.5105,1.5173,1.5174,1.5175,1.5163,1.5164,1.5164,0,0,0,0,0,1.4881,1.4896,1.4902,1.491,1.4956,1.4986,1.4992,1.5011,1.501,1.5019,1.5039,1.5048,1.5106,1.5099,1.5106,1.5116,1.5173,1.5174,1.5175,1.5163,1.5164,1.5164,0,0,0,0,0,0,1.4864,1.4901,1.4908,1.4934,1.4957,1.4989,1.5001,1.501,1.5033,1.5034,1.5056,1.5064,1.509,1.5105,1.5097,1.514,1.514,1.5142,1.5128,1.5129,1.5129,1.5125,1.5107,0,0,0,0,0,1.4863,1.4884,1.4915,1.4935,1.4946,1.4972,1.4985,1.4998,1.5022,1.5032,1.5054,1.5077,1.5101,1.5116,1.5139,1.5166,1.5174,1.5176,1.5176,1.5176,1.5178,1.5195,1.5196,1.5178,1.5178,1.5178,0,0,1.4862,1.4884,1.4896,1.4933,1.4952,1.4973,1.4979,1.5002,1.5018,1.5035,1.5063,1.508,1.5108,1.5135,1.5148,1.5149,1.5185,1.5178,1.5178,1.518,1.5196,1.5198,1.5199,1.5179,1.5179,1.5179,0,0,1.4871,1.489,1.4909,1.4928,1.4957,1.4974,1.4978,1.501,1.5022,1.505,1.5063,1.5083,1.5123,1.5143,1.5158,1.5175,1.5185,1.5182,1.5184,1.52,1.5201,1.5203,1.521,1.5212,1.5184,1.5184,1.5184,0,1.4866,1.4898,1.4918,1.494,1.4956,1.4973,1.4993,1.5011,1.5045,1.5056,1.5057,1.5108,1.5128,1.516,1.5165,1.5176,1.5183,1.5179,1.5199,1.5201,1.5203,1.5209,1.5212,1.5184,1.5184,1.5184,1.5184,0,1.4891,1.4914,1.4926,1.4959,1.4977,1.4998,1.5021,1.5037,1.5048,1.5065,1.5094,1.5118,1.5147,1.5156,1.5167,1.5191,1.5191,1.5195,1.5195,1.5204,1.521,1.5213,1.5183,1.5183,1.5184,1.5184,0,0,1.489,1.4935,1.4939,1.4955,1.4988,1.5007,1.5029,1.5057,1.507,1.5094,1.5114,1.5147,1.5152,1.5169,1.5183,1.5196,1.521,1.5199,1.52,1.5201,1.5238,1.5235,1.5238,1.5216,1.5217,1.5217,1.5236,0,1.4904,1.4944,1.4963,1.4995,1.5017,1.5033,1.5053,1.5076,1.5092,1.5114,1.5132,1.5156,1.516,1.5171,1.5185,1.5205,1.5218,1.5204,1.5235,1.5236,1.5228,1.5241,1.5238,1.5254,1.5239,1.5239,1.524,0,1.4925,1.4949,1.4983,1.5015,1.5025,1.5042,1.507,1.509,1.5117,1.5128,1.5148,1.5161,1.5186,1.5184,1.5219,1.5209,1.5223,1.5235,1.5237,1.524,1.5238,1.5246,1.526,1.5262,1.5244,1.5244,1.5243,0,1.4922,1.4963,1.4989,1.5002,1.5039,1.5051,1.5067,1.5094,1.511,1.5135,1.5146,1.5173,1.5188,1.5209,1.5229,1.5226,1.5263,1.5263,1.5273,1.5273,1.528,1.5279,1.5297,1.5288,1.5288,1.5288,1.5288,0,1.4936,1.4956,1.4988,1.5004,1.5028,1.505,1.5073,1.509,1.5114,1.5134,1.515,1.5169,1.5195,1.5217,1.5233,1.526,1.5266,1.5277,1.5281,1.5275,1.5274,1.5285,1.5285,1.5289,1.5289,1.5289,1.5288,0,1.4936,1.4958,1.4988,1.5021,1.503,1.5046,1.5075,1.5091,1.5109,1.5135,1.5142,1.517,1.5197,1.522,1.5255,1.5266,1.5294,1.5299,1.5285,1.5287,1.5297,1.5296,1.5322,1.5327,1.5314,1.5315,1.5315,0,1.4943,1.496,1.4995,1.5009,1.5025,1.5049,1.5066,1.5088,1.5105,1.5137,1.515,1.5178,1.5202,1.5244,1.5268,1.5296,1.5301,1.5309,1.5306,1.53,1.5302,1.5301,1.5303,1.5309,1.5309,1.5309,1.5309,0,1.4954,1.4965,1.4988,1.5016,1.5035,1.5058,1.5081,1.5093,1.512,1.5138,1.5166,1.5184,1.5221,1.5249,1.5279,1.5296,1.5307,1.531,1.5314,1.5309,1.53,1.5306,1.5286,1.5309,1.5309,1.5309,1.5309,1.5309,1.4959,1.4974,1.5002,1.5028,1.5048,1.5069,1.5087,1.5107,1.513,1.5162,1.5174,1.5203,1.523,1.5272,1.5289,1.5312,1.5314,1.5319,1.5321,1.5322,1.5321,1.5296,1.5318,1.5318,1.5318,1.5318,1.5318,0,1.4971,1.4989,1.5013,1.5045,1.5066,1.5075,1.5101,1.5118,1.5143,1.5168,1.5191,1.5223,1.5251,1.5277,1.5306,1.532,1.5326,1.5327,1.5326,1.533,1.5318,1.5312,1.5321,1.5321,1.5321,1.5321,1.5321,1.5321,1.4979,1.5006,1.502,1.5058,1.5077,1.5105,1.5119,1.514,1.5159,1.5195,1.5218,1.5235,1.526,1.5292,1.5317,1.5325,1.5335,1.5334,1.5343,1.5331,1.5331,1.533,1.5324,1.5336,1.5336,1.5353,1.5353,1.5353]},{"header":{"parameterUnit":"m.s-1","parameterCategory":1,"la1":30.2991,"la2":30.254,"lo1":-89.0895,"lo2":-89.0444,"dy":0.0017,"dx":0.0017,"nx":28,"ny":28,"refTime":"2025-01-15T03:00:00:Z","depth":0,"parameterNumber":3,"parameterNumberName":"V-component_of_WINDS"},"data":[0,0,0,0,0,0,0,0,0,0,0,0,0,0,0,0,0,0,0,0,0,0,0,0,0,0,0,0,0,0,0,0,0,0,0,0,0,0,0,0,0,0,0,0,0,0,0,0,0,0,0,0,0,0,0,0,0,0,-1.0171,-1.0171,0,-1.0179,-1.0179,-1.0179,-1.0165,-1.0164,-1.0164,-1.0163,-1.0172,-1.0173,-1.0173,0,0,0,0,0,0,0,0,0,0,0,0,0,-1.0146,-1.0147,-1.0171,-1.0171,-1.0171,-1.0179,-1.0179,-1.0179,-1.0165,-1.0164,-1.0164,-1.0163,-1.0172,-1.0172,-1.0173,0,0,0,0,0,0,0,0,0,0,0,0,0,-1.0156,-1.0147,-1.0171,-1.0165,-1.0165,-1.0179,-1.0179,-1.0179,-1.0165,-1.0164,-1.0164,-1.0163,-1.0171,-1.0172,-1.0173,-1.0194,0,0,-1.0176,-1.0177,0,0,0,0,0,0,0,0,-1.0155,-1.0157,-1.0166,-1.0166,-1.0165,-1.017,-1.0173,-1.0184,-1.0165,-1.0165,-1.0163,-1.0163,-1.0172,-1.0173,-1.0176,-1.0195,-1.0195,-1.0177,-1.0177,-1.0178,-1.0178,0,0,0,0,0,0,0,-1.0155,-1.0156,-1.0174,-1.0166,-1.0166,-1.0163,-1.0163,-1.0175,-1.0172,-1.0165,-1.0164,-1.0165,-1.0172,-1.0175,-1.0176,-1.0195,-1.0177,-1.0177,-1.0178,-1.0178,-1.0235,-1.0236,0,0,0,0,0,0,-1.0155,-1.0156,-1.0174,-1.0175,-1.0158,-1.0164,-1.0165,-1.0169,-1.0172,-1.0172,-1.0166,-1.0164,-1.0174,-1.0175,-1.0176,-1.0203,-1.0178,-1.0179,-1.0179,-1.0234,-1.0235,-1.0236,0,0,0,0,0,0,-1.0154,-1.0156,-1.0174,-1.0165,-1.0167,-1.0165,-1.0171,-1.017,-1.0173,-1.0173,-1.0172,-1.017,-1.0173,-1.0175,-1.0191,-1.0203,-1.0179,-1.018,-1.0233,-1.0234,-1.0236,-1.0256,0,0,0,0,0,0,-1.0153,-1.0156,-1.0163,-1.0165,-1.0168,-1.0187,-1.0171,-1.0171,-1.0175,-1.0173,-1.0176,-1.0176,-1.0173,-1.0189,-1.0192,-1.0204,-1.0181,-1.0232,-1.0234,-1.0235,-1.0254,-1.0258,-1.0261,0,0,0,0,0,-1.0153,-1.0168,-1.0164,-1.0166,-1.0176,-1.0188,-1.0189,-1.0185,-1.0176,-1.0184,-1.0184,-1.0176,-1.0201,-1.0191,-1.0194,-1.0207,-1.0231,-1.0233,-1.0235,-1.0253,-1.0257,-1.0261,0,0,0,0,0,0,-1.0167,-1.0168,-1.0163,-1.018,-1.0184,-1.0185,-1.0195,-1.0189,-1.0196,-1.0194,-1.0189,-1.019,-1.0207,-1.0208,-1.0197,-1.0229,-1.0215,-1.0217,-1.0228,-1.0232,-1.0235,-1.0235,-1.0182,0,0,0,0,0,-1.0172,-1.0181,-1.0182,-1.0196,-1.0199,-1.0197,-1.0201,-1.0198,-1.0202,-1.0204,-1.0205,-1.021,-1.0219,-1.0225,-1.0233,-1.0254,-1.0256,-1.0265,-1.0268,-1.0271,-1.0274,-1.0288,-1.0293,-1.0243,-1.0243,-1.0243,0,0,-1.0183,-1.0185,-1.019,-1.0199,-1.0202,-1.0213,-1.0198,-1.0209,-1.0217,-1.0205,-1.0221,-1.0222,-1.0227,-1.0247,-1.0255,-1.0248,-1.0288,-1.0274,-1.0276,-1.0277,-1.0291,-1.0295,-1.03,-1.0244,-1.0244,-1.0243,0,0,-1.0208,-1.0209,-1.0223,-1.0227,-1.0232,-1.0231,-1.0234,-1.0237,-1.0238,-1.0253,-1.0246,-1.0256,-1.0271,-1.0276,-1.0281,-1.0311,-1.0305,-1.0314,-1.0332,-1.0346,-1.035,-1.0354,-1.0367,-1.0372,-1.0316,-1.0316,-1.0316,0,-1.022,-1.0236,-1.0231,-1.0243,-1.0249,-1.0239,-1.0254,-1.0258,-1.0265,-1.027,-1.0262,-1.0283,-1.0286,-1.0308,-1.0315,-1.0318,-1.0324,-1.0314,-1.035,-1.0353,-1.0356,-1.0369,-1.0374,-1.0317,-1.0317,-1.0317,-1.0317,0,-1.0252,-1.0263,-1.0274,-1.0282,-1.0289,-1.0302,-1.0301,-1.0308,-1.0305,-1.0305,-1.0323,-1.0326,-1.0336,-1.0341,-1.0337,-1.0363,-1.0359,-1.035,-1.0337,-1.0363,-1.0375,-1.0379,-1.0319,-1.0319,-1.0318,-1.0318,0,0,-1.0285,-1.0293,-1.0297,-1.0303,-1.0309,-1.0317,-1.0332,-1.0342,-1.035,-1.0356,-1.0369,-1.0384,-1.0377,-1.0382,-1.0379,-1.0391,-1.0419,-1.0381,-1.0382,-1.039,-1.0451,-1.0459,-1.0465,-1.0414,-1.0415,-1.0416,-1.0452,0,-1.0312,-1.0337,-1.0335,-1.0359,-1.037,-1.0363,-1.0376,-1.0382,-1.0383,-1.0394,-1.0395,-1.0407,-1.0395,-1.0399,-1.0411,-1.0413,-1.0431,-1.041,-1.0429,-1.0429,-1.0429,-1.047,-1.0478,-1.0512,-1.0456,-1.0457,-1.0457,0,-1.0346,-1.0355,-1.0381,-1.0388,-1.0393,-1.0405,-1.0416,-1.0426,-1.0433,-1.0434,-1.0441,-1.0437,-1.0453,-1.0439,-1.0462,-1.0448,-1.0456,-1.0458,-1.046,-1.0462,-1.0446,-1.0477,-1.0522,-1.0528,-1.0464,-1.0464,-1.0463,0,-1.0371,-1.0389,-1.0408,-1.0412,-1.042,-1.043,-1.0433,-1.044,-1.0448,-1.0458,-1.0463,-1.0475,-1.0482,-1.0491,-1.0491,-1.048,-1.0516,-1.05,-1.0519,-1.0519,-1.0527,-1.0527,-1.0577,-1.0529,-1.0529,-1.0529,-1.0529,0,-1.0402,-1.0419,-1.0419,-1.0431,-1.045,-1.0448,-1.0467,-1.047,-1.0477,-1.0491,-1.0484,-1.0497,-1.0495,-1.0508,-1.0508,-1.053,-1.0532,-1.0534,-1.0534,-1.0536,-1.0536,-1.0542,-1.054,-1.053,-1.053,-1.053,-1.053,0,-1.0433,-1.0434,-1.0454,-1.0461,-1.0464,-1.0478,-1.0485,-1.0497,-1.0498,-1.0515,-1.0519,-1.0522,-1.0538,-1.0538,-1.0556,-1.0556,-1.0583,-1.0579,-1.0581,-1.0581,-1.06,-1.0599,-1.0656,-1.0665,-1.061,-1.061,-1.0611,0,-1.0453,-1.0466,-1.0476,-1.0485,-1.049,-1.0503,-1.0512,-1.0511,-1.052,-1.0532,-1.0543,-1.0558,-1.057,-1.0596,-1.06,-1.0614,-1.0612,-1.0632,-1.0614,-1.0617,-1.0616,-1.0616,-1.0619,-1.0635,-1.0636,-1.0636,-1.0637,0,-1.049,-1.0491,-1.0503,-1.0517,-1.0528,-1.0538,-1.0548,-1.0555,-1.0556,-1.0567,-1.0583,-1.0593,-1.0612,-1.0629,-1.0643,-1.0648,-1.0644,-1.0642,-1.0648,-1.065,-1.0652,-1.0654,-1.0592,-1.0641,-1.0641,-1.064,-1.064,-1.064,-1.0518,-1.053,-1.054,-1.0555,-1.0563,-1.0573,-1.0586,-1.059,-1.0604,-1.062,-1.0618,-1.0637,-1.0648,-1.0667,-1.0674,-1.069,-1.0683,-1.069,-1.0692,-1.0695,-1.0698,-1.0648,-1.0692,-1.0692,-1.0692,-1.0691,-1.0691,0,-1.0557,-1.0563,-1.0577,-1.0592,-1.0605,-1.0599,-1.0611,-1.0622,-1.0639,-1.0649,-1.0662,-1.0683,-1.0699,-1.0706,-1.0722,-1.0734,-1.0733,-1.0739,-1.0739,-1.0741,-1.0701,-1.0696,-1.074,-1.074,-1.074,-1.074,-1.074,-1.074,-1.0578,-1.0601,-1.0603,-1.063,-1.0636,-1.0655,-1.0663,-1.0673,-1.0682,-1.0705,-1.0719,-1.0724,-1.0733,-1.0751,-1.0767,-1.0768,-1.0776,-1.0783,-1.0784,-1.0748,-1.0743,-1.0738,-1.0734,-1.0784,-1.0785,-1.0823,-1.0823,-1.0823]}]]